GFSCGP_850_thetae_159.txt.gz
Theta_e
319 321 323 323 323 322 322 323 324 324 324 326 326 326 323 317 314 315 319 318 315 316 317 319 323 324 323 324 325 327 326 327 327 327 326 325 325 326 324 322 322 322 323 322
320 321 320 320 321 323 322 322 323 324 325 325 326 325 323 321 321 316 316 319 320 320 316 317 318 322 324 323 322 323 324 327 326 327 326 326 324 323 323 323 322 321 323 324
320 319 318 321 322 323 324 325 322 324 323 324 323 327 325 324 320 316 317 318 320 322 322 321 318 318 320 322 322 323 321 323 324 325 327 327 326 325 325 325 323 322 322 323
320 318 319 321 322 322 325 323 323 326 326 330 323 330 326 324 324 321 318 319 321 322 324 324 320 318 317 317 319 322 324 323 323 324 326 325 323 324 323 324 322 321 322 322
318 319 320 322 321 321 324 321 322 323 326 322 319 321 324 322 322 321 318 319 321 327 326 325 326 321 317 318 317 319 322 325 325 324 325 325 325 324 324 323 323 322 321 321
317 316 318 320 320 320 321 321 321 321 321 324 323 321 324 319 315 317 318 318 320 320 322 325 326 326 324 319 318 317 320 322 324 326 326 326 324 324 325 323 322 322 322 322
318 317 316 317 321 320 322 323 323 323 321 325 318 321 324 317 314 313 313 317 319 319 319 321 323 324 324 323 321 318 318 321 323 325 326 326 325 326 325 322 321 319 320 321
320 319 318 317 318 319 321 322 325 326 323 321 314 323 321 316 317 320 320 321 319 318 318 319 320 321 321 322 322 322 319 320 322 323 324 325 326 325 324 322 320 318 319 319
319 320 317 317 316 318 321 322 318 317 304 311 314 311 310 311 311 311 311 313 319 319 319 318 320 320 321 321 321 322 321 319 321 322 322 323 325 325 322 320 319 316 317 318
317 319 316 316 317 317 318 317 320 318 319 318 314 311 316 313 314 318 310 309 314 317 319 319 316 316 318 319 320 320 320 320 319 321 321 321 322 322 322 322 319 316 318 320
317 317 316 316 318 320 319 320 320 318 316 321 314 314 307 314 312 310 309 312 313 315 316 318 318 316 315 315 316 316 317 318 318 319 321 321 323 322 322 323 322 320 321 322
316 314 317 318 313 316 318 319 320 322 320 311 311 315 308 308 308 306 306 309 311 313 314 314 315 314 314 313 314 315 315 316 317 318 319 322 323 323 323 323 323 323 324 325
315 313 316 315 315 313 316 319 320 317 313 317 319 318 309 304 305 306 307 310 311 310 310 311 312 313 313 312 313 315 315 315 316 318 320 321 322 322 321 320 321 321 323 324
314 312 313 317 313 315 318 318 318 319 320 318 317 317 314 310 306 305 308 309 309 309 309 309 310 311 311 311 311 312 314 314 314 314 314 314 315 315 315 317 319 320 321 322
313 311 312 312 311 311 316 317 318 319 319 321 319 318 317 315 312 307 307 307 308 308 308 309 309 310 309 310 310 310 310 310 310 310 310 310 310 310 310 310 309 309 311 312
307 310 311 313 312 312 309 314 318 318 318 319 319 318 313 312 313 306 309 307 307 308 308 309 309 310 310 310 310 310 310 310 310 309 309 309 309 309 309 309 308 307 307 308
309 309 311 313 312 313 314 313 314 318 316 317 318 318 310 309 306 309 312 309 309 309 309 309 310 310 310 310 309 309 309 309 309 309 309 309 309 309 309 309 309 308 309 309
310 310 311 314 309 316 313 310 311 313 315 316 316 316 314 314 314 314 314 313 312 310 309 309 309 309 309 309 309 309 310 310 310 309 309 309 309 309 309 309 310 310 310 310
306 308 310 308 312 311 312 308 309 312 314 313 314 315 314 313 313 313 315 315 313 310 309 310 309 309 309 309 310 310 310 310 310 309 309 308 309 309 309 309 309 309 310 310
305 306 309 307 302 314 309 308 309 308 313 312 313 313 313 312 313 313 314 315 316 313 309 311 311 310 309 309 310 310 310 309 310 309 309 309 308 308 309 309 310 310 310 310
306 306 306 308 308 304 307 306 309 311 313 310 312 312 312 312 313 314 314 314 315 315 314 312 311 310 310 309 309 309 310 309 309 309 308 308 308 308 308 308 308 308 309 310
306 307 308 307 309 310 305 306 312 310 312 311 312 312 311 311 313 313 313 313 313 314 313 311 310 310 309 309 309 309 309 308 308 307 307 307 307 307 307 307 307 307 307 308
309 307 306 308 308 305 306 307 307 305 305 306 307 308 309 311 311 311 311 312 312 312 311 309 308 308 308 308 307 307 306 306 307 307 307 306 306 305 305 305 304 304 305 305
302 304 304 305 307 305 307 306 304 304 304 306 305 306 308 309 309 309 308 309 309 308 307 307 306 306 306 306 306 305 306 306 306 305 305 304 304 304 303 303 304 304 304 304
300 298 301 302 303 301 300 296 294 301 303 303 304 306 307 306 308 307 306 306 305 305 305 305 304 304 304 304 305 305 305 305 305 305 305 305 304 304 303 302 302 301 301 301
290 295 302 303 286 286 293 294 292 295 297 302 302 303 304 305 305 307 306 305 304 303 303 302 303 303 303 303 304 304 305 306 305 305 304 304 304 303 302 301 300 300 301 302

GFSCGP_850_thetae_162.txt.gz
Theta_e
319 322 321 321 322 322 321 323 324 323 323 324 324 324 324 324 322 319 316 317 318 318 318 319 322 324 326 325 326 325 325 325 326 327 326 324 323 322 321 320 320 319 320 320
320 321 320 318 318 322 324 323 323 322 323 323 323 324 323 323 323 323 323 320 317 318 320 320 317 319 322 324 324 324 324 325 325 325 325 325 324 323 323 322 321 320 321 321
320 319 318 320 321 322 322 324 323 323 322 323 325 326 324 323 323 323 323 323 323 321 323 324 322 320 317 319 320 323 323 323 324 326 327 327 327 326 325 324 323 322 322 322
320 317 318 320 321 321 322 320 322 323 324 327 324 328 323 322 323 321 323 322 321 322 324 325 323 323 324 321 318 319 321 322 323 325 327 327 325 324 321 322 322 322 323 323
318 319 318 320 319 321 323 322 323 323 325 323 323 325 323 321 322 321 321 322 321 323 324 325 326 325 326 324 321 319 319 320 322 324 324 326 327 325 325 324 321 321 322 323
314 316 318 319 319 319 320 321 322 322 324 325 323 324 323 324 320 319 320 322 323 323 325 326 328 327 327 326 325 320 318 318 318 321 323 324 323 325 325 324 323 322 322 322
317 316 317 317 318 319 321 322 323 323 323 325 318 322 322 321 314 314 316 318 320 321 322 322 322 322 324 326 326 325 319 317 317 319 321 323 324 325 325 324 323 322 321 320
318 318 317 317 318 320 321 321 324 324 323 322 316 324 322 318 318 320 319 319 320 322 323 320 319 319 320 322 325 324 325 324 318 318 318 321 323 325 326 326 325 323 321 319
319 318 316 316 317 318 321 323 319 318 309 316 316 312 313 312 312 311 312 314 319 322 320 322 321 318 319 319 320 323 324 325 322 320 318 319 322 324 324 324 325 324 322 321
317 320 317 316 316 317 319 317 320 317 322 319 316 314 318 314 315 313 315 313 316 317 318 317 320 318 317 319 319 320 320 322 323 322 321 319 320 322 323 323 324 324 323 322
314 317 316 316 318 319 318 320 320 319 318 318 317 316 309 314 314 312 310 312 313 313 314 315 316 320 319 316 316 319 320 320 320 320 320 320 320 323 323 323 324 324 324 324
316 313 317 317 313 316 318 318 319 321 318 313 311 317 311 307 307 307 307 309 310 309 311 314 314 316 318 317 315 315 317 318 319 319 319 319 320 322 324 324 324 324 324 324
315 312 316 316 314 313 318 319 318 318 314 317 318 318 312 307 305 307 305 308 309 310 310 312 313 313 314 314 314 313 314 314 315 316 317 318 319 321 322 323 324 324 323 323
314 313 315 316 315 315 318 318 318 319 321 319 318 318 315 313 310 311 312 313 308 309 309 310 311 311 312 312 312 313 313 314 314 315 316 317 318 319 321 322 323 323 322 323
314 313 314 314 311 311 313 317 318 319 319 320 319 318 316 315 313 315 312 314 311 309 309 309 308 309 310 310 311 311 312 314 314 314 314 315 316 317 319 320 321 321 321 323
309 311 309 312 313 313 313 311 315 317 319 319 319 319 316 316 316 315 314 310 313 314 314 310 309 308 309 309 310 310 310 310 311 311 310 311 311 311 311 311 311 310 310 309
309 309 311 312 310 311 314 313 312 314 316 317 320 318 316 316 315 315 315 315 313 313 315 310 309 309 309 309 310 310 309 309 309 309 309 309 309 309 309 309 309 309 308 308
306 307 310 310 307 313 309 308 311 312 313 315 316 316 316 315 316 316 315 315 316 316 314 314 309 309 309 309 309 309 309 309 309 309 309 309 309 309 309 309 309 309 309 309
306 306 306 302 306 304 309 307 310 311 312 311 315 316 315 315 314 314 315 314 315 315 316 315 311 309 309 309 309 309 309 309 309 309 309 309 309 309 309 309 309 309 309 309
304 306 302 301 308 300 304 306 307 308 312 310 311 312 312 312 313 314 314 314 314 314 315 315 315 309 309 309 309 309 309 309 309 310 310 309 309 309 309 309 309 309 309 309
302 306 308 307 306 300 301 306 309 309 309 307 310 311 311 311 313 313 314 314 314 314 314 314 314 311 310 310 309 308 309 309 309 310 311 310 310 309 309 308 308 309 310 310
299 299 298 304 302 300 303 304 309 304 302 304 304 303 303 307 311 312 313 313 313 313 313 313 313 312 310 309 309 309 309 309 310 310 310 309 308 308 307 307 307 308 308 309
302 302 300 301 301 301 305 303 300 297 298 299 299 301 302 303 306 306 309 310 310 311 312 312 310 310 310 309 308 309 309 308 309 308 308 307 307 306 306 306 305 306 306 305
302 302 302 306 305 301 300 299 298 296 295 297 299 299 300 302 304 305 305 306 307 308 309 308 307 307 306 306 307 307 307 307 306 306 306 305 305 304 303 303 303 303 303 303
299 300 299 301 300 300 298 298 296 296 295 297 299 299 297 300 304 302 302 303 305 304 305 305 303 304 304 304 304 304 304 304 304 304 303 303 302 302 302 302 302 301 301 301
294 299 301 301 289 292 295 294 292 293 293 293 292 299 299 296 301 300 300 299 301 301 301 301 301 300 302 302 302 302 303 303 303 302 303 303 303 302 301 300 300 299 299 300

GFSCGP_850_thetae_165.txt.gz
Theta_e
319 321 319 319 320 318 320 322 323 323 321 324 324 323 322 322 323 322 323 324 325 322 322 323 321 318 321 326 327 326 325 324 325 325 325 323 320 318 317 317 317 317 317 317
320 320 318 315 316 320 321 323 322 320 322 324 322 323 321 321 322 323 323 322 322 324 326 325 324 321 318 319 323 325 325 325 324 323 323 325 323 322 321 320 319 319 319 318
320 317 317 319 318 319 320 322 322 323 322 322 323 324 321 320 321 321 322 322 323 323 325 327 326 324 322 321 319 319 322 325 324 323 324 326 326 326 324 323 322 321 321 321
318 317 318 318 319 320 321 317 318 320 322 323 321 323 319 319 320 320 322 322 322 323 323 325 327 326 325 323 323 318 318 319 323 325 324 325 324 323 321 321 322 322 322 323
316 317 318 319 320 319 321 319 319 320 322 321 321 324 319 319 321 320 320 322 322 323 324 323 324 326 327 326 326 324 324 320 318 322 324 324 325 324 325 324 323 322 322 322
312 316 317 317 317 317 319 320 320 321 322 324 321 321 320 319 319 319 319 320 321 322 323 323 324 322 324 327 328 326 324 324 321 319 321 323 322 323 325 325 324 323 321 321
315 315 316 317 319 318 319 321 323 323 324 323 318 322 323 318 317 316 318 319 321 322 321 322 323 323 324 326 328 327 325 325 325 322 319 320 320 320 323 323 323 323 322 321
319 318 314 315 316 317 320 321 322 324 321 318 315 321 319 316 317 318 319 319 320 319 320 319 319 320 323 325 326 326 326 326 325 325 320 318 318 319 321 323 323 323 323 322
313 313 314 314 315 314 316 321 318 321 307 316 316 314 313 312 313 313 315 318 317 317 318 320 322 321 322 319 319 321 320 322 324 325 325 319 317 317 319 320 323 324 325 325
316 318 314 314 316 316 317 315 321 319 322 321 316 315 318 315 315 314 312 313 313 312 312 316 317 316 318 320 317 318 319 320 323 324 324 323 322 321 319 319 322 323 324 325
314 315 316 315 317 318 319 320 320 318 319 322 315 315 309 314 313 312 309 311 311 311 310 312 311 312 315 318 317 316 318 318 319 320 321 322 322 321 319 318 320 322 324 324
312 311 316 316 312 314 316 317 318 321 318 316 312 318 311 307 308 308 309 313 317 315 309 310 310 312 312 315 318 318 315 318 318 318 319 320 321 320 320 320 320 323 324 324
313 313 315 316 314 313 318 317 317 317 315 315 317 318 308 309 307 309 306 312 314 316 315 312 310 310 311 313 315 315 314 314 316 318 318 319 319 320 320 321 322 324 325 325
313 311 315 315 316 315 317 317 318 318 320 318 317 317 315 314 313 313 315 314 314 314 317 317 315 311 309 310 312 312 312 312 313 314 316 317 318 318 319 320 322 323 324 325
310 308 313 312 310 312 313 316 317 319 319 319 317 317 316 315 313 314 314 314 313 313 316 317 317 315 309 308 309 311 312 312 312 313 314 315 316 317 318 320 321 323 324 325
310 312 310 311 311 312 313 313 314 316 316 317 318 318 316 316 316 314 316 316 315 314 315 316 317 315 310 308 308 309 310 311 312 313 314 315 316 317 318 320 322 322 322 322
310 310 310 310 308 311 310 312 313 313 314 315 317 315 314 314 314 314 315 315 315 315 316 315 316 316 312 308 309 309 309 310 310 312 313 313 313 313 313 313 314 314 314 313
308 309 308 306 302 306 306 307 310 312 312 312 314 314 314 314 315 315 315 314 315 315 315 316 316 316 312 309 309 309 309 309 309 309 309 309 309 309 309 309 309 309 308 308
305 305 307 304 304 300 305 305 309 309 311 310 311 312 313 313 314 314 314 314 314 314 314 314 315 316 315 311 309 309 309 309 309 309 309 309 309 309 309 309 309 309 309 309
303 303 299 303 298 297 300 304 307 307 310 303 306 309 309 310 311 311 311 311 312 313 313 314 314 314 314 314 309 308 308 308 308 309 309 309 309 309 309 309 309 309 309 309
301 304 302 298 292 297 299 300 307 306 304 300 301 301 300 303 305 304 305 305 306 308 311 313 313 313 313 312 309 308 309 308 308 308 309 309 310 309 309 309 309 309 309 309
300 299 295 295 298 300 299 304 308 299 299 299 297 297 296 297 300 301 303 304 305 306 308 310 311 312 313 312 309 309 310 308 308 308 308 308 309 309 308 308 308 309 309 309
298 298 297 300 301 299 303 302 297 296 296 297 298 297 296 298 299 300 302 303 304 305 306 307 308 310 309 308 307 307 308 309 308 308 308 308 308 307 307 307 307 307 307 307
299 299 300 301 300 299 302 299 294 293 293 295 295 296 296 297 299 300 301 302 304 304 304 305 306 306 306 306 306 305 304 304 306 308 307 307 306 305 305 305 305 305 305 305
299 299 298 299 301 300 298 294 292 291 291 292 293 292 293 295 299 298 299 301 302 303 302 301 301 302 302 302 302 303 303 303 303 303 304 304 304 304 304 303 303 302 302 302
296 298 301 300 291 294 294 289 290 289 289 288 290 291 289 291 294 295 297 298 299 301 301 300 298 300 300 300 301 302 302 302 302 302 302 303 303 303 302 302 301 300 300 300

GFSCGP_850_thetae_168.txt.gz
Theta_e
319 321 321 322 321 321 321 322 322 321 321 323 324 324 325 324 324 324 324 323 323 325 325 324 322 320 319 318 320 324 326 326 326 325 326 324 321 317 316 316 316 316 317 316
320 321 319 318 320 322 323 322 323 321 320 322 323 324 323 322 323 323 323 322 322 322 323 324 325 323 322 321 320 319 323 326 326 325 322 325 325 322 319 317 317 317 317 317
319 318 318 318 319 319 319 320 321 321 320 321 323 324 322 321 322 322 322 321 321 321 321 322 321 324 325 324 322 322 320 321 325 325 325 325 327 326 324 322 320 318 317 317
320 318 318 319 319 320 320 318 319 320 320 322 320 325 321 320 319 320 320 321 322 323 323 322 322 322 322 326 325 324 323 320 320 324 326 325 324 323 319 320 321 321 320 320
317 318 319 319 319 319 320 318 321 320 320 320 322 323 320 319 320 320 320 320 321 322 323 323 322 323 323 323 326 326 324 324 321 320 323 326 325 324 323 322 321 321 322 322
316 315 317 317 318 318 319 320 321 320 320 323 322 323 324 322 321 320 319 319 320 321 322 322 322 322 322 323 324 325 325 324 324 322 319 320 322 324 325 324 323 323 323 322
313 315 316 317 318 318 319 321 323 324 323 324 320 324 323 321 321 320 321 321 320 319 320 320 320 321 320 322 322 324 323 325 325 326 325 323 321 319 324 323 323 323 323 323
316 316 315 316 318 319 320 319 321 323 323 322 319 324 322 319 319 320 320 319 319 318 318 317 316 317 319 320 322 323 321 322 324 326 327 325 324 322 320 321 322 323 322 322
316 315 315 314 315 317 319 321 318 321 315 320 321 320 319 318 319 319 318 317 315 314 312 311 311 312 315 319 319 321 320 321 322 325 326 325 324 323 322 320 320 321 321 321
314 316 316 314 315 316 317 317 320 321 323 321 318 319 320 319 319 319 317 314 312 315 314 310 310 310 311 313 313 316 317 317 319 321 322 323 323 324 324 320 320 320 319 320
314 315 316 316 317 318 317 317 317 317 318 319 318 317 317 318 319 318 317 312 312 314 315 315 317 314 309 310 313 316 316 316 315 316 317 318 320 322 323 322 320 319 319 320
314 315 316 315 315 316 316 318 318 320 318 319 319 321 313 315 316 314 313 310 312 314 315 315 316 316 317 310 314 316 316 316 315 314 316 316 318 320 322 322 321 319 319 320
313 314 314 317 314 313 317 317 317 317 316 320 322 320 315 314 315 314 314 314 313 315 316 315 315 316 317 317 309 319 315 316 316 313 314 315 316 318 319 321 321 321 320 320
312 313 313 317 316 317 317 318 317 318 320 320 320 319 318 316 316 316 316 316 316 314 313 315 316 316 317 317 313 309 315 312 313 312 312 314 316 317 318 319 320 321 320 321
312 314 312 313 314 315 316 317 318 319 318 319 319 318 318 317 316 317 316 316 316 315 315 315 315 316 316 314 314 310 308 309 311 311 311 313 315 317 318 319 320 321 321 322
311 313 312 312 313 314 315 314 317 317 317 318 318 318 317 317 316 316 315 315 315 315 315 315 315 315 315 316 316 309 308 308 309 311 312 311 313 315 317 319 320 321 322 323
312 310 312 313 310 311 314 313 313 315 315 317 318 317 316 316 315 315 315 315 314 314 314 314 314 313 314 315 314 309 309 309 308 309 311 312 314 315 317 318 319 321 322 323
310 311 312 313 310 314 312 309 312 314 313 314 315 315 315 314 314 313 313 313 313 311 310 311 312 312 313 314 313 310 309 309 309 309 309 311 313 315 317 318 317 318 318 319
310 310 310 312 311 308 308 306 309 312 313 312 313 313 312 311 310 312 309 307 304 303 304 305 307 310 312 313 313 312 308 308 309 309 308 308 308 309 309 309 309 309 308 308
305 306 309 306 309 309 306 306 305 310 312 304 305 304 304 307 311 311 306 304 303 304 304 305 308 311 311 311 311 310 307 308 308 309 309 309 308 308 308 308 308 308 308 308
308 307 309 307 307 306 304 304 304 313 308 302 302 301 301 304 304 303 302 302 303 303 304 305 306 308 310 310 308 308 306 306 307 308 308 309 309 309 308 309 309 309 309 309
306 307 307 305 306 306 302 304 308 304 300 298 297 297 295 296 297 297 301 303 304 305 305 304 305 306 307 307 306 307 306 305 306 307 307 308 308 308 309 309 309 309 309 309
304 304 305 306 306 301 300 301 298 298 297 295 294 292 292 293 294 294 298 301 303 304 303 302 302 304 305 305 305 305 305 305 304 305 306 306 307 307 307 308 308 308 308 308
300 299 304 302 303 301 300 296 296 294 293 293 292 292 292 294 294 294 295 298 300 302 302 302 301 301 303 304 303 303 303 304 304 304 304 304 306 306 306 306 306 306 306 306
302 301 302 303 302 300 295 293 292 292 293 292 292 292 292 292 293 293 295 297 297 298 299 299 300 300 300 301 301 301 301 301 301 302 303 303 304 304 304 304 305 305 305 305
299 303 304 305 298 299 294 289 291 291 292 293 293 292 291 290 291 292 293 295 296 296 297 297 297 298 299 300 300 300 299 300 300 300 301 301 301 302 302 302 303 302 301 301

GFSCGP_850_thetae_171.txt.gz
Theta_e
320 322 324 322 323 322 321 322 323 322 322 322 323 323 323 322 323 323 324 325 325 325 324 324 325 323 323 327 329 327 324 324 327 327 325 322 321 318 316 316 316 316 316 316
320 322 319 319 320 322 323 323 323 321 320 321 321 322 321 321 322 322 323 323 324 324 324 323 323 325 323 325 324 324 327 323 325 327 326 324 322 321 321 318 316 316 316 317
320 318 317 318 319 320 320 321 321 322 320 320 320 322 321 320 320 320 321 321 322 322 323 322 322 323 324 323 326 323 320 320 324 325 326 326 326 325 325 323 321 317 316 316
319 318 319 320 320 319 321 319 319 319 320 321 318 321 319 319 319 319 319 320 320 322 322 322 323 323 323 323 324 326 325 322 320 323 327 326 324 322 319 319 320 321 319 317
318 318 319 321 320 319 320 318 318 319 321 320 319 321 319 320 320 320 320 319 319 320 321 321 322 323 324 324 323 323 326 326 323 321 322 324 326 325 324 323 321 321 320 321
316 316 318 318 317 318 318 319 319 320 321 323 320 320 320 319 321 322 321 321 321 320 321 322 322 323 324 324 324 323 324 326 327 325 322 323 322 323 326 325 324 322 322 321
315 316 315 317 318 318 318 319 322 323 322 324 319 322 321 321 321 321 321 321 321 321 321 320 320 319 320 322 322 322 323 325 327 328 326 323 322 321 321 322 324 325 324 323
315 314 315 316 316 318 319 319 321 320 324 321 320 323 323 321 320 320 321 320 320 320 316 313 312 311 311 312 318 321 320 322 326 328 328 326 324 323 321 321 321 322 324 323
313 312 314 313 316 316 318 320 318 319 319 321 322 321 320 320 320 320 319 319 317 316 315 312 313 315 316 314 310 316 318 318 320 325 328 328 327 325 324 324 323 324 322 323
315 314 314 313 314 316 317 317 320 319 320 321 317 319 320 320 320 319 320 318 315 314 315 315 314 313 316 316 315 311 312 312 316 318 323 328 323 325 325 325 325 325 325 324
315 315 317 315 316 316 316 318 318 319 320 320 319 318 317 317 318 318 318 316 314 313 315 316 315 315 315 316 317 317 312 314 313 315 317 323 319 321 324 325 325 325 325 326
315 315 317 315 315 315 316 316 317 319 316 318 318 318 316 317 318 317 316 315 315 316 317 316 315 315 316 315 316 317 315 309 314 314 314 315 315 316 321 323 324 325 326 327
314 314 315 315 314 314 317 317 316 317 317 319 318 316 316 316 317 317 317 317 317 317 317 316 316 315 315 315 315 316 315 311 308 314 313 314 317 316 318 320 323 326 327 327
313 314 313 314 314 314 315 315 316 317 318 318 319 318 316 317 318 318 317 317 317 317 316 316 316 316 315 315 314 315 316 315 309 308 313 314 316 315 314 320 323 324 325 326
313 313 313 312 311 313 316 316 317 318 318 318 317 317 317 317 317 317 317 317 316 315 315 315 315 314 314 314 313 314 315 314 308 308 308 313 312 311 314 320 322 323 324 325
312 313 313 312 312 311 314 316 316 316 317 317 317 318 318 317 316 316 316 315 315 314 314 313 310 309 311 313 312 313 314 310 308 309 308 309 311 312 311 318 320 322 325 325
312 311 313 314 312 313 313 313 313 315 316 316 318 318 317 316 316 315 315 314 312 309 306 305 305 305 306 309 311 312 314 312 308 308 308 308 310 312 311 314 318 321 322 324
311 311 311 313 312 314 312 311 312 312 313 315 316 316 316 314 314 313 310 306 306 305 304 303 303 305 306 308 310 311 313 311 307 308 308 308 310 311 313 315 317 319 321 322
311 312 313 312 313 312 311 308 310 313 314 313 313 314 313 309 310 310 306 304 303 302 303 303 303 304 305 307 309 312 312 310 307 307 307 307 307 310 313 315 316 318 320 321
307 311 312 310 311 312 310 308 309 311 313 308 310 308 307 308 311 311 305 303 302 301 302 304 304 304 305 306 307 308 308 308 306 306 307 308 307 307 308 309 310 310 311 312
309 309 311 312 312 310 307 307 308 309 308 305 305 305 305 307 305 302 300 299 299 298 301 303 304 303 303 305 305 306 306 304 305 305 306 307 308 308 308 308 308 308 308 308
310 311 311 312 311 310 305 304 308 306 302 302 301 301 299 299 297 298 301 300 296 298 301 303 304 304 303 303 303 304 304 305 304 304 304 305 306 308 308 308 308 309 309 309
309 309 309 309 308 303 302 303 300 300 302 297 298 295 294 294 295 294 298 301 301 300 301 302 302 304 302 301 301 302 302 302 303 303 303 303 304 305 307 307 308 308 309 309
302 303 304 304 305 303 301 298 299 297 296 295 295 294 293 292 292 293 296 297 299 299 300 300 301 302 303 301 300 300 300 301 302 302 302 302 302 303 304 306 307 307 307 307
303 301 304 304 303 300 298 297 295 295 295 294 293 293 292 292 292 292 293 294 295 296 297 298 298 298 300 300 299 299 300 300 300 301 301 301 301 301 302 303 304 305 305 305
302 303 303 303 302 303 298 293 294 294 292 291 291 290 289 290 290 291 292 293 293 294 295 297 297 297 298 299 300 300 299 299 299 300 300 300 300 300 300 301 302 303 303 303

GFSCGP_850_thetae_174.txt.gz
Theta_e
321 323 323 322 321 322 321 321 321 321 320 322 322 321 321 321 321 322 322 323 324 324 324 325 325 324 325 324 325 328 330 331 330 329 327 324 321 319 317 316 315 315 315 315
320 322 319 320 321 322 322 322 321 320 320 320 319 319 318 319 319 320 321 322 322 323 323 323 324 324 324 325 324 324 327 328 331 330 328 326 325 322 320 318 316 316 315 315
318 317 318 319 320 322 322 322 322 320 318 318 318 318 317 317 318 319 319 320 320 321 322 322 323 323 324 323 325 324 324 326 324 326 329 328 327 326 324 321 320 318 316 316
317 316 317 317 318 318 320 317 318 319 320 319 317 318 317 316 316 316 318 318 319 320 321 321 321 322 322 322 323 325 324 324 326 324 327 328 327 327 324 322 321 320 320 317
318 317 318 318 318 317 318 317 319 319 318 317 317 319 316 316 316 316 317 319 319 319 319 320 321 321 322 323 323 323 324 324 325 327 326 326 327 326 326 326 323 321 320 321
316 316 316 318 317 318 318 319 319 319 319 320 318 317 316 315 316 320 319 320 320 321 320 321 322 321 321 322 322 324 324 323 324 327 327 327 326 325 327 327 326 324 322 320
315 315 316 317 318 318 319 319 316 320 318 318 316 317 316 316 317 318 317 320 320 320 320 320 318 315 314 314 315 322 324 324 324 326 327 327 328 326 325 327 326 326 325 324
315 314 315 315 317 318 318 318 318 318 320 318 315 319 318 318 318 320 320 320 319 317 314 313 315 314 315 316 315 311 317 320 323 325 327 328 328 328 327 327 327 326 325 324
313 314 312 314 315 315 317 318 316 318 314 319 319 319 317 317 318 318 319 319 318 316 315 314 315 315 315 316 316 316 313 314 320 322 326 328 329 329 328 328 328 327 326 325
312 312 312 312 314 314 315 316 318 318 318 315 313 312 315 318 318 318 317 318 315 314 314 316 316 315 315 315 315 316 316 314 310 313 318 323 328 329 329 329 329 328 327 327
313 315 313 312 314 315 315 318 317 316 315 316 315 314 314 313 316 315 314 315 314 314 316 317 316 316 315 315 316 315 315 316 313 309 312 315 318 323 328 329 329 329 328 327
313 314 317 314 314 313 314 315 316 316 316 315 316 317 313 312 314 315 315 316 316 317 317 317 316 316 316 316 315 315 314 315 315 313 308 312 313 316 320 323 325 327 328 325
313 313 310 313 314 314 316 315 314 314 315 314 314 315 312 313 311 315 316 317 317 317 316 315 315 315 314 313 313 313 313 314 315 315 312 308 313 314 315 318 320 323 324 320
313 312 310 311 312 313 315 315 315 315 316 315 315 315 313 312 313 313 315 316 316 315 314 314 314 314 311 308 309 312 312 313 314 314 309 307 307 311 313 314 316 320 323 321
312 310 311 312 311 314 313 313 313 314 315 316 314 314 313 313 312 314 316 316 315 314 313 312 308 307 306 307 307 308 310 312 313 313 308 308 307 307 309 312 319 321 324 317
311 311 308 307 311 311 310 312 313 315 315 314 314 314 313 315 315 315 315 314 312 310 308 306 306 305 305 306 306 308 310 312 312 313 309 308 307 307 307 311 316 315 315 317
311 309 310 307 309 308 308 310 310 312 314 314 315 314 314 314 314 315 313 311 308 306 305 305 305 304 304 305 305 308 308 309 311 311 307 307 308 308 308 308 312 315 319 318
310 307 310 302 307 312 307 309 309 309 311 312 313 313 313 314 313 309 307 306 306 305 304 304 304 304 304 304 305 306 307 307 308 309 307 307 307 307 308 309 313 315 317 316
310 309 311 309 304 305 307 307 308 310 310 310 311 313 314 310 309 305 305 304 303 302 302 303 303 303 303 303 304 305 306 307 306 305 306 306 307 308 307 308 313 315 316 318
307 309 309 310 308 304 307 306 308 309 310 308 311 309 307 308 309 305 303 302 302 302 302 303 303 302 303 304 303 304 305 306 307 307 305 304 305 307 308 307 307 313 317 318
310 310 310 310 303 304 305 306 309 307 307 306 307 305 305 305 303 302 302 301 301 302 302 302 302 302 303 303 303 303 303 305 305 306 306 304 303 305 307 308 308 308 308 308
309 310 310 310 310 308 305 306 307 305 304 304 304 303 302 301 302 302 301 301 299 298 299 300 301 302 301 302 303 303 302 302 303 304 304 305 304 304 304 306 308 308 308 308
307 307 306 307 305 302 303 303 303 303 303 302 301 301 300 299 299 299 298 298 297 297 296 296 297 299 299 300 301 302 301 301 302 302 303 303 304 303 303 304 306 307 308 308
302 302 303 303 303 301 301 300 301 301 301 300 300 299 298 296 296 296 297 296 296 296 296 296 296 298 299 299 299 300 301 301 301 301 301 302 302 302 302 302 303 304 307 308
300 301 299 300 302 300 300 299 299 298 298 297 296 296 294 293 293 293 294 295 295 295 295 295 296 296 296 297 298 299 300 302 303 302 301 301 301 301 301 301 302 302 303 304
300 299 300 300 300 300 298 297 295 295 294 293 293 292 292 292 291 292 293 293 293 294 294 294 294 294 295 296 296 296 297 299 300 302 302 301 300 300 300 299 299 299 301 301

GFSCGP_850_thetae_180.txt.gz
Theta_e
318 319 320 317 318 317 318 320 320 318 316 318 317 316 316 320 320 320 320 321 321 321 321 321 322 322 323 324 325 325 325 325 326 328 329 330 329 328 326 324 322 319 318 319
319 317 315 316 317 320 320 320 319 317 316 316 315 315 313 315 315 317 317 318 318 319 320 319 319 320 321 322 323 324 325 325 324 325 326 328 328 329 328 327 325 323 321 320
315 314 315 316 317 319 319 319 319 319 316 314 313 315 313 312 314 315 316 316 316 316 317 317 317 317 320 322 322 323 323 324 324 324 326 328 330 329 329 328 327 326 325 323
315 314 316 316 317 317 319 317 318 319 316 316 313 316 312 313 312 311 313 313 314 315 316 317 318 318 318 318 319 319 322 323 324 324 324 325 325 325 324 325 327 327 327 326
312 314 314 317 317 316 318 316 318 317 316 315 314 314 312 311 311 310 311 314 317 316 317 317 317 318 317 318 319 320 320 320 321 323 324 324 325 325 325 326 327 327 327 326
310 313 312 313 314 314 315 316 317 315 315 318 314 313 311 310 311 310 311 314 319 319 319 318 317 318 316 317 319 320 322 322 322 322 323 324 324 324 325 325 326 325 325 326
313 312 311 313 314 313 316 317 312 313 318 315 311 314 313 311 311 309 312 315 317 318 319 315 315 315 315 315 316 316 316 314 314 320 323 323 324 326 326 325 326 326 326 326
311 313 312 312 314 314 314 316 310 311 314 313 312 315 314 311 312 314 313 313 315 315 314 315 315 315 315 314 314 315 315 315 316 314 313 319 324 325 326 326 326 327 327 327
309 309 309 311 314 314 315 316 311 312 305 312 312 311 311 312 311 313 314 315 312 312 315 316 316 315 315 315 314 314 314 314 314 314 315 312 314 319 322 323 325 326 327 328
309 310 309 311 314 313 315 313 317 310 311 314 312 312 313 312 313 311 311 315 314 312 315 315 315 315 314 314 314 314 313 313 313 313 314 314 312 309 312 320 323 325 326 328
309 309 310 311 313 315 314 315 314 313 309 312 310 309 306 311 310 309 309 313 313 313 314 314 314 314 314 313 312 311 311 311 311 312 313 313 314 314 314 309 310 315 319 322
310 310 308 311 311 310 313 314 314 315 312 309 312 311 310 309 310 309 310 313 315 315 314 314 314 313 312 311 310 310 310 310 309 310 311 312 313 314 314 313 311 308 311 316
310 309 308 305 310 310 312 312 313 312 310 312 311 312 307 307 310 312 314 314 314 313 312 312 312 312 311 309 308 308 309 309 309 309 309 311 312 313 313 310 308 308 307 312
310 308 309 309 310 310 312 312 312 313 314 313 312 311 309 310 309 311 313 314 314 313 313 312 311 309 308 308 308 308 308 308 309 309 310 311 311 312 311 309 308 308 307 308
310 310 308 308 310 311 311 312 311 312 313 312 312 312 311 309 310 308 313 313 313 313 313 313 311 309 309 309 308 308 307 307 308 309 310 310 310 311 309 307 307 307 307 307
310 302 308 303 308 309 307 310 310 312 312 312 312 311 310 310 310 310 311 312 312 312 311 310 310 308 308 308 308 308 308 307 306 307 308 308 309 309 308 307 307 307 307 308
310 307 305 310 308 306 311 309 309 310 309 312 312 312 311 309 309 311 312 311 310 309 307 305 305 305 306 307 307 307 307 307 306 306 306 307 308 308 307 306 306 307 307 307
310 310 309 308 307 312 309 306 308 308 309 309 310 310 309 309 311 311 311 311 310 307 304 303 303 304 305 306 306 306 306 307 307 306 306 306 307 307 307 305 305 306 307 307
309 310 312 310 311 305 305 303 304 305 307 307 309 309 309 309 309 305 306 307 306 304 303 304 304 304 304 305 305 305 305 305 305 306 306 305 304 306 306 307 306 305 306 307
307 310 311 305 311 308 307 303 305 304 306 304 306 307 307 305 307 306 305 303 303 302 302 302 302 303 302 303 303 304 304 304 305 305 305 304 304 303 304 304 305 305 304 307
309 309 310 311 307 304 301 303 306 305 305 305 305 305 305 305 307 308 304 302 301 301 301 300 299 300 300 300 300 301 301 302 303 304 304 305 304 303 302 303 303 304 304 305
308 309 309 309 309 308 301 304 307 305 305 306 306 305 305 305 303 302 301 301 300 298 298 298 298 298 298 298 299 299 299 299 300 301 302 303 304 304 304 302 302 303 303 303
308 306 307 308 307 302 304 305 307 307 306 305 306 304 305 302 300 299 299 298 297 297 297 297 298 297 297 297 296 297 297 297 298 298 299 300 301 302 302 303 304 302 302 302
303 302 305 306 305 302 304 304 305 306 305 305 304 303 302 301 298 297 296 295 295 295 296 296 296 296 295 294 294 294 295 295 295 295 296 297 298 300 300 300 301 302 301 301
300 301 301 302 301 300 301 302 304 303 303 303 302 301 300 299 296 296 295 294 294 294 294 294 294 294 293 293 293 292 293 293 293 293 293 294 296 297 298 298 297 297 297 296
298 301 305 306 303 304 301 303 301 302 301 301 300 298 297 296 296 294 293 293 292 292 292 292 292 292 292 292 292 291 291 291 292 293 293 293 293 295 296 296 297 296 296 295

GFSCGP_850_thetae_183.txt.gz
Theta_e
317 317 318 318 316 316 316 319 319 318 316 317 316 315 314 316 316 317 318 320 321 322 321 320 320 322 321 322 323 324 325 325 325 325 327 329 328 328 328 328 328 326 324 322
317 316 313 314 315 319 318 319 318 317 316 315 314 314 312 313 314 316 317 318 320 320 320 319 319 318 319 319 320 321 322 323 324 324 325 326 326 327 327 328 328 328 328 326
314 313 313 315 316 318 318 319 317 318 316 314 312 313 311 311 312 315 316 317 316 317 317 317 316 316 316 317 318 319 321 322 323 323 324 326 327 327 327 327 326 325 327 328
314 314 314 314 315 316 318 316 317 318 317 317 312 314 311 312 311 310 314 314 314 315 314 314 314 315 316 317 317 316 320 320 320 322 323 324 325 325 323 324 324 325 325 326
311 313 312 315 315 314 316 315 316 316 316 314 314 313 310 309 310 309 311 313 313 316 317 317 315 316 316 317 317 318 318 319 319 319 320 320 322 324 324 326 326 325 325 325
309 311 311 311 314 313 316 316 316 316 315 315 312 312 311 309 309 308 309 311 313 318 317 317 316 316 315 315 315 317 319 321 321 321 320 320 321 322 325 325 326 326 326 326
311 310 310 312 314 313 316 315 310 312 318 314 310 312 312 309 308 308 309 313 314 315 314 314 314 314 314 315 315 315 315 315 314 314 316 319 321 322 323 323 324 325 326 326
311 313 310 309 312 313 315 316 310 311 313 312 310 313 312 310 311 312 312 312 313 313 313 314 315 315 314 314 314 314 315 315 315 315 315 315 313 313 316 322 324 325 325 325
307 308 308 309 312 312 313 316 310 311 305 308 310 309 309 309 310 310 311 314 314 312 313 314 315 315 315 314 314 313 313 313 313 313 313 314 315 313 310 312 317 319 321 323
308 309 308 309 311 312 312 311 315 313 313 312 310 311 312 310 310 310 310 314 310 311 314 315 315 314 313 313 313 312 311 311 311 312 312 312 313 314 314 313 312 310 309 313
308 308 309 311 312 311 315 315 314 312 308 310 308 308 305 309 308 307 307 311 312 313 314 314 314 313 313 313 312 312 311 310 310 310 311 311 311 312 312 313 314 314 313 311
308 308 307 309 309 310 311 314 314 315 312 310 310 310 307 307 309 308 307 309 311 314 314 314 313 313 312 312 312 311 310 309 310 310 310 310 310 310 311 312 313 313 313 311
309 310 305 305 308 309 311 312 313 313 309 312 314 313 306 307 310 312 313 313 313 313 313 313 312 311 312 311 310 309 309 309 309 309 310 310 310 311 311 311 312 312 311 309
310 305 308 309 308 308 312 311 312 313 315 313 313 312 308 309 309 310 312 313 313 313 312 311 311 312 311 309 309 309 309 308 308 308 308 309 309 310 310 310 310 310 308 308
309 305 308 308 309 310 310 311 311 312 313 312 312 311 310 308 306 309 310 312 312 312 311 311 311 310 309 308 308 308 308 308 308 308 308 307 308 308 308 308 307 307 307 307
307 304 306 308 307 308 306 308 309 311 311 311 311 311 310 309 310 310 310 311 312 312 311 311 311 309 307 307 307 307 307 307 308 308 308 307 306 307 307 308 307 306 306 307
308 303 304 309 307 306 309 308 309 310 310 310 311 311 309 307 307 309 310 311 311 312 311 311 309 308 306 305 305 306 306 306 306 306 306 307 307 306 305 306 306 307 306 305
308 309 309 309 304 311 309 308 307 309 310 309 310 310 309 309 310 311 311 311 311 311 310 308 307 305 304 304 305 305 305 305 305 305 305 305 305 306 306 305 305 306 307 307
308 308 310 310 310 307 305 303 307 307 309 308 309 310 310 309 310 310 310 310 311 309 307 305 303 303 304 304 304 304 303 303 303 303 304 304 305 306 306 306 305 305 306 306
306 308 310 309 311 311 308 303 304 304 309 307 308 308 308 305 307 308 307 308 308 307 304 303 303 303 302 301 301 300 300 300 301 301 301 302 303 304 305 306 306 304 304 304
307 308 310 311 310 304 303 302 304 305 305 303 306 307 306 304 307 306 307 306 305 303 302 302 301 300 299 299 299 299 298 298 298 298 298 299 299 301 303 304 305 305 305 304
307 307 307 309 310 309 302 302 305 305 305 305 305 305 305 305 305 305 306 304 301 301 300 299 298 298 298 297 297 297 297 297 296 296 296 296 297 298 299 300 302 304 304 305
306 305 307 307 307 304 304 306 306 306 306 305 306 307 306 305 303 303 301 300 300 299 298 297 297 297 296 296 296 296 296 296 295 295 295 294 294 295 295 297 298 300 301 302
302 302 304 305 304 302 303 306 306 305 305 306 306 306 306 305 303 301 300 298 297 296 296 296 296 296 295 295 295 295 295 295 295 294 294 293 293 293 293 294 296 296 294 295
303 301 300 302 302 301 303 304 304 305 305 304 305 305 305 304 300 299 298 297 296 296 295 295 296 295 295 294 294 294 294 294 293 293 293 293 293 293 293 293 294 295 295 294
299 301 304 307 305 304 304 305 304 304 304 303 304 302 301 300 299 297 295 295 295 294 294 294 294 294 294 294 294 293 292 292 292 292 292 292 292 293 292 293 294 294 294 294

GFSCGP_850_thetae_186.txt.gz
Theta_e
317 316 316 316 316 316 314 318 318 317 316 316 315 313 313 315 315 315 316 316 318 319 319 319 319 320 320 320 320 322 322 323 324 323 325 326 326 326 327 327 327 328 328 328
315 314 312 314 315 318 317 318 317 315 315 315 314 315 314 314 314 315 316 317 317 318 318 319 319 319 319 318 318 318 320 321 322 323 323 324 324 324 325 326 327 327 327 327
313 312 312 314 315 317 317 317 317 317 315 314 310 311 310 310 311 313 314 315 316 317 317 317 317 317 316 315 316 316 317 318 319 321 322 323 323 324 324 325 324 324 325 325
314 312 312 313 314 315 316 315 317 317 317 316 311 315 310 310 310 309 312 313 314 314 314 314 314 314 314 314 316 316 316 316 317 320 320 321 322 323 323 323 324 325 325 326
310 312 313 313 313 314 314 314 315 315 315 313 313 314 310 308 310 309 310 311 311 312 315 317 316 315 315 316 317 317 317 316 316 318 320 319 319 319 320 321 322 323 325 326
309 310 310 311 312 313 314 315 315 314 313 314 311 312 309 310 308 308 308 311 312 314 315 314 314 314 315 315 316 317 318 319 319 319 319 319 319 320 321 321 321 322 324 324
310 310 309 312 313 313 315 315 309 310 314 312 309 310 311 309 307 306 307 311 311 311 313 313 313 313 314 314 314 315 316 316 317 316 315 315 315 317 318 319 320 321 322 323
309 310 309 309 311 312 314 314 309 308 312 310 309 312 309 308 310 311 311 312 312 313 312 313 314 314 314 314 314 314 314 314 314 315 315 315 315 315 315 314 312 312 314 316
307 308 307 307 310 311 312 316 310 309 305 307 308 307 307 308 308 309 309 311 313 312 311 314 314 314 314 313 313 312 312 312 312 312 312 312 312 313 313 313 314 313 313 312
306 308 306 308 310 311 311 310 314 314 311 310 309 310 311 309 308 306 308 310 310 309 312 314 314 314 313 313 313 312 312 311 310 310 310 310 310 311 311 311 312 312 313 313
306 307 309 309 310 310 313 313 312 310 309 310 307 307 304 307 307 307 306 308 309 312 314 314 314 313 313 312 312 312 311 310 309 309 310 310 310 310 310 310 310 311 311 312
307 307 306 309 309 309 310 312 311 311 309 309 309 310 306 305 306 307 308 309 308 313 314 313 312 311 311 312 312 312 311 310 309 309 309 310 310 310 311 311 311 311 311 311
308 309 306 304 306 307 310 309 312 312 309 311 312 310 305 305 307 311 310 310 310 313 312 312 312 311 312 312 311 311 310 309 309 309 309 308 309 309 309 310 310 311 311 311
309 307 308 308 306 306 310 310 310 312 314 312 312 311 308 309 306 310 312 312 312 313 313 312 312 312 313 311 310 309 309 309 309 308 308 308 308 308 308 308 309 309 309 308
309 306 306 307 307 308 308 309 310 311 312 312 311 310 310 307 307 309 311 311 312 312 312 312 311 311 311 311 310 309 308 308 308 308 308 308 308 307 308 307 307 307 308 308
306 305 304 306 307 306 306 308 307 310 311 311 311 310 309 309 309 309 309 309 310 310 311 312 311 311 311 309 308 307 306 306 306 306 306 305 305 305 306 307 307 306 306 307
305 305 307 309 307 305 308 307 308 308 309 310 311 310 309 308 307 308 309 310 310 311 311 312 312 310 309 308 307 305 305 305 305 305 305 305 305 305 305 305 305 305 305 305
307 306 308 308 299 309 306 305 306 307 307 308 309 309 309 309 309 309 310 310 310 310 310 311 310 309 308 306 305 305 304 304 303 303 303 302 302 303 303 304 305 306 305 304
305 307 308 309 309 306 305 304 305 306 307 306 307 308 309 309 309 309 310 310 310 310 310 310 309 308 306 304 304 303 302 301 300 300 300 300 300 300 300 301 303 304 305 305
304 306 307 307 308 308 306 305 304 304 308 307 306 307 307 307 307 309 309 310 310 310 309 308 307 305 304 303 302 300 299 299 299 298 298 298 297 298 298 298 298 299 302 303
305 307 308 309 309 304 303 302 304 308 308 307 307 306 307 305 307 308 307 307 307 307 306 304 303 302 302 300 298 298 297 297 297 297 296 295 295 295 294 295 295 296 297 299
302 304 306 307 308 308 303 301 306 306 307 305 305 306 305 306 307 307 306 306 305 304 302 301 301 300 298 297 297 297 297 297 297 296 295 295 294 294 293 293 294 294 295 296
303 305 303 306 307 306 306 306 307 305 307 306 306 306 305 304 304 304 304 303 302 300 299 298 297 297 296 296 296 296 296 295 295 295 294 294 294 294 293 293 293 293 294 294
300 301 302 304 304 302 304 305 306 306 306 307 306 306 307 306 305 303 302 300 299 297 296 295 294 295 295 295 295 295 295 295 294 294 293 293 293 293 293 293 293 293 293 293
299 300 301 300 302 301 304 304 305 306 305 305 306 305 306 306 304 303 301 299 297 296 294 293 294 294 294 294 294 294 294 293 293 293 292 292 292 292 293 292 293 292 292 292
299 301 303 303 303 304 304 305 305 303 305 305 304 304 304 305 305 301 296 296 295 294 293 293 293 293 293 293 293 293 292 292 292 292 292 292 292 291 291 291 292 292 292 291